Preview of NWS' New Version of Forecast
This preview is not operational and should not be used for support decisions.

Regional Weather Roundup (RWR)

Issued by National Weather Service (NWS)

                            
000
ASUS45 KABQ 211010
RWRNM 
NEW MEXICO REGIONAL WEATHER ROUNDUP
NATIONAL WEATHER SERVICE ALBUQUERQUE NM
400 AM MDT SAT SEP 21 2019

NOTE: "FAIR" MEANS FEW OR NO CLOUDS BELOW 12,000 FEET AGL WITH NO
       SIGNIFICANT WEATHER OR OBSTRUCTIONS TO VISION.

      THIS PRODUCT IS RELEASED AS TWO VERSIONS.  ONE VERSION NEAR
      THE TOP OF THE HOUR CONTAINING PRELIMINARY DATA FROM ALBUQUERQUE
      AND OTHER STATIONS.  A FINAL VERSION WITH ADDITIONAL DATA IS 
      ISSUED ABOUT 10 MINUTES AFTER THE HOUR.
 
NMZ501-503-504-510>518-211100-
NORTHWEST PLATEAU/NORTHCENTRAL MOUNTAINS
  
CITY           SKY/WX    TMP DP  RH WIND       PRES   REMARKS
FARMINGTON     FAIR      43  19  38 NE8       30.08R                  
LOS ALAMOS     FAIR      58  25  27 S6        30.18R                  
SANTA FE       FAIR      53  31  42 CALM      30.13S                  
TAOS           FAIR      46  25  43 E5        30.18S                  

$$
NMZ402-403-502-505>509-211100-
WESTCENTRAL MOUNTAINS/SOUTHWEST MOUNTAINS
  
CITY           SKY/WX    TMP DP  RH WIND       PRES   REMARKS
GALLUP         FAIR      42  25  50 NE5       30.15S                  
GRANTS         FAIR      40  34  77 CALM      30.18S                  
SILVER CITY    FAIR      59  41  51 NW10      30.08F                  

$$
NMZ407-409-411-412-211100-
SOUTHERN DESERTS
  
CITY           SKY/WX    TMP DP  RH WIND       PRES   REMARKS
DEMING         FAIR      61  50  67 SW5       30.02S                  
LAS CRUCES     FAIR      67  48  50 NW3       30.01S                  
HOLLOMAN AFB   MOCLDY    68  49  50 SE6       30.00S                  
ALAMOGORDO     MOCLDY    68  50  52 CALM      29.99S                  
T OR C         FAIR      64  45  49 W12       30.03S                  

$$
NMZ519>523-211100-
CENTRAL VALLEYS/CENTRAL HIGHLANDS
  
CITY           SKY/WX    TMP DP  RH WIND       PRES   REMARKS
ALBUQUERQUE    FAIR      59  33  37 SE6       30.08S                  
DOUBLE EAGLE   FAIR      54  33  43 W8        30.10S                  
MORIARTY ARPT  FAIR      46  39  78 CALM      30.14S                  
CLINES CORNERS FAIR      50  30  46 W9        30.18F                  
BELEN          FAIR      58  33  38 W6        30.08S                  
SOCORRO        FAIR      60  38  44 CALM      30.05R                  

$$
NMZ524>526-539-540-211100-
SOUTHCENTRAL MOUNTAINS
  
CITY           SKY/WX    TMP DP  RH WIND       PRES   REMARKS
RUIDOSO        FAIR      57  41  54 W3        30.19S                  

$$
NMZ527>531-211100-
NORTHEAST HIGHLANDS/NORTHEAST PLAINS
  
CITY           SKY/WX    TMP DP  RH WIND       PRES   REMARKS
LAS VEGAS      FAIR      58  31  35 SW3       30.14R                  
RATON          FAIR      48  39  71 N7        30.07S                  
CLAYTON        CLOUDY    65  62  90 SW10      30.01S                  

$$
NMZ532>537-211100-
EASTCENTRAL PLAINS
  
CITY           SKY/WX    TMP DP  RH WIND       PRES   REMARKS
TUCUMCARI      FAIR      68  63  84 S14G22    29.97R                  
CANNON AFB     FAIR      65  64  99 SE6       30.05R                  
CLOVIS AIRPORT CLOUDY    63  63 100 SE7       30.05S                  

$$
NMZ028-029-033-538-211100-
SOUTHEAST PLAINS
  
CITY           SKY/WX    TMP DP  RH WIND       PRES   REMARKS
ROSWELL        FAIR      70  63  78 CALM      29.97S                  
ARTESIA        FAIR      70  66  88 CALM      29.98S                  
CARLSBAD       FAIR      73  61  65 SE7       29.94F                  
HOBBS          FAIR      68  66  94 E6        30.01S                  


$$